Gulf Shores - Orange Beach - Perdido Key Weather Center

Moon Phase Calendar



Online Cameras

 


      

Current Conditions in Orange Beach
11/25/2020 11:58:16 PM

72°F
Feels Like 73
Clouds
Humidity
88%
Pressure
30.09"
Wind
11.4 mph (S)
Dew Point
69°F
UV Index
4/10 (Moderate)
Visibility
6 mi

Hourly Forecast

Date & Time Wed, Nov 25
11:00 PM
Thu, Nov 26
12:00 AM
Thu, Nov 26
1:00 AM
Thu, Nov 26
2:00 AM
Thu, Nov 26
3:00 AM
Thu, Nov 26
4:00 AM
Thu, Nov 26
5:00 AM
Thu, Nov 26
6:00 AM
Thu, Nov 26
7:00 AM
Thu, Nov 26
8:00 AM
Thu, Nov 26
9:00 AM
Thu, Nov 26
10:00 AM
Thu, Nov 26
11:00 AM
Thu, Nov 26
12:00 PM
Thu, Nov 26
1:00 PM
Thu, Nov 26
2:00 PM
Thu, Nov 26
3:00 PM
Thu, Nov 26
4:00 PM
Thu, Nov 26
5:00 PM
Thu, Nov 26
6:00 PM
Thu, Nov 26
7:00 PM
Thu, Nov 26
8:00 PM
Thu, Nov 26
9:00 PM
Thu, Nov 26
10:00 PM
Thu, Nov 26
11:00 PM
Fri, Nov 27
12:00 AM
Fri, Nov 27
1:00 AM
Fri, Nov 27
2:00 AM
Fri, Nov 27
3:00 AM
Fri, Nov 27
4:00 AM
Fri, Nov 27
5:00 AM
Fri, Nov 27
6:00 AM
Fri, Nov 27
7:00 AM
Fri, Nov 27
8:00 AM
Fri, Nov 27
9:00 AM
Fri, Nov 27
10:00 AM
Fri, Nov 27
11:00 AM
Fri, Nov 27
12:00 PM
Fri, Nov 27
1:00 PM
Fri, Nov 27
2:00 PM
Fri, Nov 27
3:00 PM
Fri, Nov 27
4:00 PM
Fri, Nov 27
5:00 PM
Fri, Nov 27
6:00 PM
Fri, Nov 27
7:00 PM
Fri, Nov 27
8:00 PM
Fri, Nov 27
9:00 PM
Fri, Nov 27
10:00 PM
Condition
Rain

Clear

Clear

Clear

Clear

Clear

Clear

Clear

Clear

Clear

Clear

Clear

Clear

Clear

Clouds

Rain

Clear

Clear

Clear

Clear

Clear

Clear

Clear

Clear

Clear

Clear

Clear

Clear

Clear

Clear

Clear

Clear

Clear

Clouds

Clouds

Clouds

Clouds

Clouds

Rain

Rain

Rain

Rain

Rain

Clouds

Clouds

Clouds

Clouds

Clouds
Temperature 72°F72°F72°F72°F71°F71°F71°F70°F70°F71°F73°F74°F75°F74°F75°F74°F74°F74°F72°F72°F71°F71°F71°F71°F71°F70°F70°F70°F70°F70°F69°F69°F69°F70°F72°F73°F74°F74°F74°F73°F73°F72°F71°F70°F68°F68°F68°F68°F
Feels Like 74°F74°F75°F75°F75°F75°F75°F75°F75°F77°F79°F80°F80°F79°F78°F78°F78°F77°F76°F75°F75°F75°F75°F75°F76°F76°F76°F76°F75°F74°F73°F72°F72°F73°F75°F77°F76°F76°F76°F76°F76°F77°F75°F71°F67°F67°F69°F72°F
Cloudiness 20%10%4%1%0%0%0%0%1%1%1%3%4%6%13%12%9%8%6%5%1%0%0%4%3%2%0%0%0%6%7%6%0%13%23%42%44%53%100%100%100%100%100%100%100%100%100%100%
Visibility 6 mi6 mi6 mi6 mi6 mi6 mi6 mi6 mi6 mi6 mi6 mi6 mi6 mi6 mi6 mi6 mi6 mi6 mi6 mi6 mi6 mi6 mi6 mi6 mi6 mi6 mi6 mi6 mi6 mi6 mi6 mi6 mi6 mi6 mi6 mi6 mi6 mi6 mi6 mi6 mi6 mi5 mi6 mi6 mi6 mi6 mi6 mi6 mi
Precipitation 51%50%33%26%28%25%19%15%0%0%0%0%0%13%31%31%31%28%30%26%23%22%20%21%17%19%18%19%14%11%11%7%0%0%0%0%0%9%68%79%75%79%82%85%35%46%57%47%
Humidity 88%89%90%91%92%92%93%93%93%90%85%80%79%79%79%79%79%81%86%87%87%88%89%89%90%90%90%91%90%90%90%90%90%86%82%78%76%77%77%79%81%85%86%87%90%89%88%86%
Dew Point 69°F69°F69°F69°F69°F69°F69°F68°F68°F68°F68°F68°F68°F68°F68°F68°F68°F68°F68°F68°F68°F68°F68°F68°F68°F68°F67°F67°F67°F67°F66°F66°F66°F66°F66°F66°F66°F66°F66°F66°F67°F67°F67°F66°F65°F65°F64°F64°F
Pressure 30.09"30.09"30.06"30.06"30.06"30.06"30.06"30.06"30.09"30.09"30.12"30.12"30.09"30.09"30.06"30.03"30.03"30.03"30.03"30.06"30.06"30.06"30.09"30.06"30.06"30.09"30.06"30.06"30.06"30.06"30.06"30.09"30.09"30.09"30.09"30.09"30.09"30.06"30.03"30.03"30.03"30.03"30.03"30.03"30.06"30.06"30.06"30.06"
Wind Speed 9.9 mph8.6 mph7.9 mph7.2 mph6.9 mph6.2 mph5.6 mph4.4 mph3.9 mph2.8 mph1.4 mph0.8 mph2.2 mph3.8 mph5.3 mph5.4 mph4.9 mph4.9 mph4.6 mph5 mph5.4 mph4.8 mph4 mph3.7 mph2.4 mph1.8 mph1.7 mph0.9 mph1.1 mph2.3 mph3.4 mph4.1 mph4.6 mph4.2 mph4.6 mph4 mph5.9 mph5.9 mph5.3 mph5.6 mph4.8 mph3.2 mph3.6 mph8.1 mph10.9 mph10 mph6.1 mph2.6 mph
Wind
Direction
203°
SSW
208°
SSW
211°
SSW
220°
SW
224°
SW
236°
SW
259°
W
281°
W
305°
NW
329°
NNW
333°
NNW
269°
W
233°
SW
234°
SW
236°
SW
238°
WSW
228°
SW
216°
SW
203°
SSW
194°
SSW
187°
S
185°
S
191°
S
192°
SSW
203°
SSW
211°
SSW
237°
WSW
264°
W
328°
NNW
19°
NNE
34°
NE
30°
NNE
41°
NE
58°
ENE
81°
E
96°
E
119°
ESE
142°
SE
153°
SSE
157°
SSE
141°
SE
180°
S
308°
NW
356°
N

N
12°
NNE
30°
NNE
84°
E

Daily Forecast

Date High Low Precip. Humidity
Today
Nov 25

Rain
74 °F
69 °F
81%
77%
Thursday
Nov 26

Rain
75 °F
70 °F
81%
78%
Friday
Nov 27

Rain
74 °F
68 °F
74%
77%
Saturday
Nov 28

Rain
71 °F
67 °F
77%
80%
Sunday
Nov 29

Rain
71 °F
63 °F
100%
89%
Monday
Nov 30

Clouds
56 °F
44 °F
1%
68%
Tuesday
Dec 1

Clear
50 °F
38 °F
0%
55%
Wednesday
Dec 2

Clear
55 °F
44 °F
0%
45%
Thursday
Dec 3

Clear
56 °F
40 °F
0%
42%
Friday
Dec 4

Clear
58 °F
44 °F
0%
38%
Saturday
Dec 5

Rain
68 °F
53 °F
100%
48%
Sunday
Dec 6

Rain
60 °F
51 °F
100%
66%
Monday
Dec 7

Clouds
58 °F
49 °F
0%
50%
Tuesday
Dec 8

Clouds
59 °F
46 °F
1%
67%
Wednesday
Dec 9

Rain
63 °F
56 °F
50%
73%
Thursday
Dec 10

Rain
63 °F
56 °F
87%
73%


Temperature 8-14 Day Outlook



Precipitation 8-14 Day Outlook




Quick Links
Gulf Shores - Orange Beach - Perdido Key News
Gulf Shores - Orange Beach - Perdido Key Photos
Gulf Shores - Orange Beach - Perdido Key Videos




About Us
Contact Us
Site Map
Search Site
Advertise With Us
   
GulfShores.USGulf.info
THE GULF SHORES - ORANGE BEACH - PERDIDO KEY WEBSITE

Copyright 2020, Coastal Town
Privacy    |    Legal